Location: Newark
(35.2672°N, 80.7344°W)
Time: 04:07:43
(UTC+00:00)

Tiros 1 - Pass Details

Date: 22 January 2020
Orbit: 631 x 664 km, 48.4° (Epoch: 18 February)

Event Time Altitude Azimuth Distance (km) Brightness Sun altitude
Rises 21:17:01 0° 291° (WNW) 2,957 11.0 13.9°
Reaches altitude 10° 21:20:05 10° 312° (NW) 2,055 9.9 13.4°
Maximum altitude 21:23:13 17° 353° (N) 1,637 9.0 12.9°
Drops below altitude 10° 21:26:22 10° 35° (NE) 2,069 9.2 12.3°
Sets 21:29:28 0° 55° (NE) 2,987 9.9 11.8°
